Home   Weather   Perg   Past weeks

Flag for Austria Past Weather in Perg, Upper Austria, Austria — Yesterday and Last 2 Weeks

Now
44 °F

Quite cool.


Feels Like: 44 °F
Forecast: 41 / 70 °F
Wind: No wind

Location: Amstetten

Current Time: Sep 25, 2016 at 5:48:18 AM

Latest Report: Sep 25, 2016 at 5:00 AM


Visibility: N/A

Pressure: 30.24 "Hg

Humidity: 99%

Dew Point: 43 °F

Location of PergLocation

Past Weather in Perg — Graph

°F

Perg Temperature Yesterday

Maximum temperature yesterday: 70 °F (at 4:00 PM)
Minimum temperature yesterday: 42 °F (at 7:00 AM)
Average temperature yesterday: 55 °F

High & Low Weather Summary for the Past Weeks

 TemperatureHumidityPressure
High83 °F (Sep 12, 5:00 PM)100% (Sep 10, 4:00 AM)30.39 "Hg (Sep 10, 4:00 AM)
Low42 °F (Sep 23, 7:00 AM)44% (Sep 23, 5:00 PM)29.78 "Hg (Sep 17, 3:00 AM)
Average62 °F84%30.03 "Hg
* Reported Sep 10 4:00 AM — Sep 25 4:00 AM, Perg, Weather by CustomWeather, © 2016

Note: Actual official high and low records may vary slightly from our data, if they occured in-between our weather recording intervals... More about our weather records

Advertising

Perg Weather History for the Previous 24 Hours

Scroll right to see more
 ConditionsComfort  
Time TempWeatherWind HumidityBarometerVisibility
4:00 AM
Sun, Sep 25
44 °FQuite cool.1 mph100%30.23 "HgN/A
3:00 AM46 °FCool.No wind99%30.24 "HgN/A
2:00 AM47 °FCool.1 mph99%30.24 "HgN/A
1:00 AM47 °FCool.1 mph100%30.25 "HgN/A
12:00 AM48 °FCool.No wind97%30.26 "HgN/A
11:00 PM
Sat, Sep 24
51 °FCool.1 mph97%30.26 "HgN/A
10:00 PM51 °FCool.No wind95%30.26 "HgN/A
9:00 PM54 °FCool.No wind92%30.26 "HgN/A
8:00 PM57 °FCool.No wind87%30.25 "HgN/A
7:00 PM61 °FCool.No wind80%30.24 "HgN/A
6:00 PM68 °FMild.1 mph55%30.24 "HgN/A
5:00 PM70 °FMild.1 mph49%30.24 "HgN/A
4:00 PM70 °FMild.1 mph44%30.24 "HgN/A
3:00 PM70 °FMild.1 mph45%30.26 "HgN/A
2:00 PM69 °FMild.1 mph49%30.29 "HgN/A
1:00 PM67 °FMild.No wind58%30.32 "HgN/A
12:00 PM64 °FMild.No wind66%30.34 "HgN/A
11:00 AM60 °FCool.No wind77%30.35 "HgN/A
10:00 AM54 °FCool.No wind88%30.36 "HgN/A
9:00 AM50 °FCool.1 mph97%30.37 "HgN/A
8:00 AM44 °FQuite cool.No wind100%30.39 "HgN/A
7:00 AM42 °FQuite cool.1 mph100%30.37 "HgN/A
6:00 AM43 °FQuite cool.No wind100%30.37 "HgN/A
5:00 AM44 °FQuite cool.1 mph100%30.37 "HgN/A
Weather by CustomWeather, © 2016

See weather overviewHow to use our weather pages